This is the latest recevied weather packets stored in our database for station/object KG0HG. If no packets are shown the sender has not sent any weather packets the latest 10 day(s).
| Time | Temp. | Humidity | Pressure | Rain* | Wind** | Luminosity | Snow |
|---|---|---|---|---|---|---|---|
| 1778250371 | 15° C | 70% | 1010.6 hPa | 0 mm | - | 38 W/m² | - |
| 1778250068 | 15° C | 69% | 1010.7 hPa | 0 mm | - | 35 W/m² | - |
| 1778249765 | 15° C | 69% | 1010.3 hPa | 0 mm | - | 51 W/m² | - |
| 1778249462 | 15° C | 70% | 1010.4 hPa | 0 mm | - | 49 W/m² | - |
| 1778249159 | 15° C | 70% | 1010.5 hPa | 0 mm | - | 42 W/m² | - |
| 1778248856 | 15° C | 70% | 1010.5 hPa | 0 mm | - | 41 W/m² | - |
| 1778248551 | 15° C | 70% | 1010.4 hPa | 0 mm | - | 50 W/m² | - |
| 1778248248 | 15° C | 71% | 1010.5 hPa | 0 mm | - | 31 W/m² | - |
| 1778247945 | 15° C | 71% | 1010.5 hPa | 0 mm | - | 23 W/m² | - |
| 1778247642 | 15° C | 70% | 1010.5 hPa | 0 mm | - | 26 W/m² | - |
| 1778247338 | 15° C | 71% | 1010.6 hPa | 0 mm | - | 23 W/m² | - |
| 1778247036 | 15° C | 71% | 1010.5 hPa | 0 mm | - | 26 W/m² | - |
| 1778246734 | 15° C | 71% | 1010.6 hPa | 0 mm | - | 29 W/m² | - |
| 1778246430 | 15° C | 71% | 1010.8 hPa | 0 mm | - | 31 W/m² | - |
| 1778246125 | 15° C | 70% | 1010.6 hPa | 0 mm | - | 17 W/m² | - |
| 1778245822 | 15° C | 69% | 1010.5 hPa | 0 mm | - | 23 W/m² | - |
| 1778245519 | 15° C | 70% | 1010.8 hPa | 0 mm | - | 33 W/m² | - |
| 1778245215 | 15° C | 70% | 1010.5 hPa | 0 mm | - | 30 W/m² | - |
| 1778244911 | 14.44° C | 70% | 1010.7 hPa | 0 mm | - | 32 W/m² | - |
| 1778244609 | 14.44° C | 69% | 1010.4 hPa | 0 mm | - | 33 W/m² | - |
| 1778244306 | 14.44° C | 69% | 1010.7 hPa | 0 mm | - | 31 W/m² | - |
| 1778244004 | 14.44° C | 68% | 1010.7 hPa | 0 mm | - | 29 W/m² | - |
| 1778243702 | 15° C | 68% | 1010.6 hPa | 0 mm | - | 29 W/m² | - |
| 1778243398 | 14.44° C | 68% | 1010.6 hPa | 0 mm | - | 27 W/m² | - |
| 1778243095 | 14.44° C | 68% | 1010.9 hPa | 0 mm | - | 20 W/m² | - |
* Rain latest hour (hover to see other rain measurements)
** Current wind speed in m/s (hover to see current wind gust speed)